GW6098 Weather Reports


time (UTC)temp
C
wind
direction
speed
KPH
gust
KPH
rain 1hr
cm
rain 24hr
cm
rain mn
cm
humidity
%
barometer
mb
20260504001513 23 355 1.6 6.4 0.00 0.00 0.00 46 1010.1
20260504001356 23 10 1.6 6.4 0.00 0.00 0.00 47 1011.7
20260504000349 23 71 1.6 6.4 0.00 0.00 0.00 45 1012.0
20260504000042 23 32 0.0 6.4 0.00 0.00 0.00 46 1010.3
20260503235849 23 32 1.6 6.4 0.00 0.00 0.00 46 1011.9
20260503234846 23 11 4.8 9.7 0.00 0.00 0.00 44 1012.0
20260503234514 23 360 4.8 9.7 0.00 0.00 0.00 44 1010.5
20260503234345 23 22 4.8 8.0 0.00 0.00 0.00 44 1012.1
20260503233846 23 0 4.8 8.0 0.00 0.00 0.00 44 1012.1
20260503233346 23 355 4.8 8.0 0.00 0.00 0.00 44 1012.1
20260503233010 23 355 3.2 8.0 0.00 0.00 0.00 44 1010.6
20260503232847 23 0 3.2 8.0 0.00 0.00 0.00 45 1012.2
20260503232345 23 350 3.2 8.0 0.00 0.00 0.00 45 1012.1
20260503231842 23 10 3.2 6.4 0.00 0.00 0.00 44 1012.1
20260503231516 23 352 3.2 8.0 0.00 0.00 0.00 45 1010.8
20260503231343 23 355 3.2 8.0 0.00 0.00 0.00 43 1012.1
20260503230842 23 21 4.8 8.0 0.00 0.00 0.00 45 1012.3
20260503230342 23 9 4.8 8.0 0.00 0.00 0.00 44 1012.3
20260503230015 23 360 3.2 8.0 0.00 0.00 0.00 45 1011.0
20260503225842 23 22 4.8 8.0 0.00 0.00 0.00 47 1012.4
20260503225343 23 5 4.8 8.0 0.00 0.00 0.00 45 1012.5
20260503224838 23 0 4.8 8.0 0.00 0.00 0.00 46 1012.6
20260503224515 23 341 3.2 8.0 0.00 0.00 0.00 45 1011.1
20260503224339 23 28 3.2 8.0 0.00 0.00 0.00 48 1012.7
20260503223838 23 14 3.2 12.9 0.00 0.00 0.00 47 1012.8
20260503223338 23 355 3.2 12.9 0.00 0.00 0.00 47 1012.8
20260503223017 22 5 1.6 8.0 0.00 0.00 0.00 47 1011.4
20260503222838 22 5 3.2 8.0 0.00 0.00 0.00 47 1013.0
20260503222338 23 355 3.2 8.0 0.00 0.00 0.00 46 1013.2
20260503221516 22 5 3.2 8.0 0.00 0.00 0.00 48 1011.5
20260503221338 22 331 4.8 8.0 0.00 0.00 0.00 47 1013.2
20260503220838 22 355 3.2 8.0 0.00 0.00 0.00 48 1013.3
20260503220339 22 346 3.2 8.0 0.00 0.00 0.00 49 1013.3
20260503220010 22 355 1.6 8.0 0.00 0.00 0.00 48 1011.7
20260503215837 22 355 3.2 8.0 0.00 0.00 0.00 49 1013.7
20260503214522 22 17 1.6 8.0 0.00 0.00 0.00 51 1012.1
20260503214338 22 349 3.2 8.0 0.00 0.00 0.00 49 1013.6
20260503213839 22 23 4.8 14.5 0.00 0.00 0.00 50 1014.0
20260503213337 22 339 4.8 14.5 0.00 0.00 0.00 49 1013.9
20260503213019 22 324 4.8 14.5 0.00 0.00 0.00 46 1012.1
20260503212335 22 18 4.8 14.5 0.00 0.00 0.00 46 1013.7
20260503211521 22 346 4.8 12.9 0.00 0.00 0.00 45 1012.1
20260503210022 22 327 3.2 12.9 0.00 0.00 0.00 48 1012.2
20260503205913 22 67 6.4 12.9 0.00 0.00 0.00 48 1013.7
20260503205415 22 22 6.4 1.6 0.00 0.00 0.00 46 1013.8
20260503204518 22 17 6.4 12.9 0.00 0.00 0.00 48 1012.3
20260503203950 22 312 4.8 12.9 0.00 0.00 0.00 50 1014.1
20260503203448 22 335 4.8 12.9 0.00 0.00 0.00 48 1014.1
20260503203029 21 17 1.6 9.7 0.00 0.00 0.00 50 1012.3
20260503202451 21 349 4.8 6.4 0.00 0.00 0.00 50 1013.6
20260503201519 21 352 1.6 11.3 0.00 0.00 0.00 54 1012.3
20260503200932 21 31 4.8 11.3 0.00 0.00 0.00 49 1014.2
20260503200005 21 5 4.8 8.0 0.00 0.00 0.00 51 1012.5
20260503195046 21 9 3.2 6.4 0.00 0.00 0.00 53 1014.0
20260503194545 21 0 4.8 9.7 0.00 0.00 0.00 54 1014.2
20260503194512 21 12 3.2 9.7 0.00 0.00 0.00 54 1012.8
20260503194044 21 9 6.4 11.3 0.00 0.00 0.00 53 1014.3
20260503193544 22 355 6.4 11.3 0.00 0.00 0.00 53 1014.4
20260503193042 22 30 4.8 11.3 0.00 0.00 0.00 55 1014.3
20260503193008 22 342 4.8 11.3 0.00 0.00 0.00 52 1012.8
20260503192541 22 76 3.2 8.0 0.00 0.00 0.00 55 1014.4
20260503191541 21 79 3.2 6.4 0.00 0.00 0.00 55 1014.4
20260503191520 21 32 3.2 6.4 0.00 0.00 0.00 55 1012.9
20260503191037 21 26 3.2 6.4 0.00 0.00 0.00 52 1014.7
20260503190538 21 42 3.2 6.4 0.00 0.00 0.00 55 1014.9
20260503190035 20 57 4.8 9.7 0.00 0.00 0.00 54 1014.8
20260503190017 20 32 3.2 9.7 0.00 0.00 0.00 54 1013.3
20260503184513 20 5 3.2 11.3 0.00 0.00 0.00 57 1013.4
20260503184036 20 11 4.8 11.3 0.00 0.00 0.00 56 1014.9
20260503183531 20 15 4.8 8.0 0.00 0.00 0.00 57 1014.9
20260503183034 20 23 4.8 11.3 0.00 0.00 0.00 58 1014.9
20260503183010 20 11 3.2 11.3 0.00 0.00 0.00 58 1013.5
20260503182531 20 337 4.8 11.3 0.00 0.00 0.00 58 1014.9
20260503182032 20 335 4.8 4.8 0.00 0.00 0.00 58 1014.9
20260503181505 19 35 3.2 12.9 0.00 0.00 0.00 59 1013.6
20260503180839 20 0 4.8 12.9 0.00 0.00 0.00 58 1015.2
20260503180334 20 9 4.8 12.9 0.00 0.00 0.00 59 1015.2
20260503180029 20 9 3.2 9.7 0.00 0.00 0.00 58 1013.7
20260503175827 20 17 4.8 9.7 0.00 0.00 0.00 59 1015.2
20260503175330 20 41 4.8 9.7 0.00 0.00 0.00 57 1015.4
20260503174826 21 5 3.2 3.2 0.00 0.00 0.00 55 1015.4
20260503174522 21 58 3.2 8.0 0.00 0.00 0.00 55 1013.9
20260503173640 20 63 1.6 6.4 0.00 0.00 0.00 59 1015.6
20260503173030 19 22 1.6 6.4 0.00 0.00 0.00 61 1014.0
20260503172139 20 355 3.2 6.4 0.00 0.00 0.00 60 1015.5
20260503171638 19 57 1.6 6.4 0.00 0.00 0.00 60 1015.7
20260503171514 18 44 3.2 6.4 0.00 0.00 0.00 61 1014.1
20260503171140 18 12 3.2 4.8 0.00 0.00 0.00 61 1015.7
20260503170518 18 11 3.2 8.0 0.00 0.00 0.00 61 1015.6
20260503151006 18 340 4.8 14.5 0.00 0.00 0.00 59 1016.1
20260503150507 18 291 4.8 14.5 0.00 0.00 0.00 59 1016.1
20260503131119 12 276 1.6 6.4 0.00 0.00 0.00 72 1015.2
20260503130616 12 338 1.6 6.4 0.00 0.00 0.00 73 1015.5
20260503130117 11 200 1.6 4.8 0.00 0.00 0.00 74 1015.5
20260503110422 13 194 3.2 6.4 0.00 0.00 0.00 73 1015.5
20260503100249 13 180 3.2 6.4 0.00 0.00 0.00 67 1015.5
20260503081518 14 182 3.2 8.0 0.00 0.00 0.00 65 1013.9
20260503081046 14 338 3.2 6.4 0.00 0.00 0.00 63 1015.5
20260503080547 14 164 3.2 3.2 0.00 0.00 0.00 67 1015.4
20260503072635 14 198 3.2 6.4 0.00 0.00 0.00 68 1015.2
20260503072131 15 196 3.2 6.4 0.00 0.00 0.00 67 1015.3
20260503071630 15 196 4.8 6.4 0.00 0.00 0.00 67 1015.3
20260503071518 14 196 3.2 6.4 0.00 0.00 0.00 66 1013.8
20260503071130 15 195 3.2 6.4 0.00 0.00 0.00 66 1015.3
20260503070628 15 184 4.8 8.0 0.00 0.00 0.00 65 1015.2
20260503070128 15 182 4.8 8.0 0.00 0.00 0.00 65 1015.2
20260503055101 15 182 3.2 4.8 0.00 0.00 0.00 63 1015.3
20260503054602 15 182 3.2 4.8 0.00 0.00 0.00 64 1015.4
20260503054520 15 182 1.6 4.8 0.00 0.00 0.00 64 1013.8
20260503054103 15 182 3.2 6.4 0.00 0.00 0.00 64 1015.3
20260503053602 15 182 3.2 6.4 0.00 0.00 0.00 65 1015.3
20260503053106 15 182 3.2 4.8 0.00 0.00 0.00 63 1015.4
20260503053017 15 182 3.2 6.4 0.00 0.00 0.00 63 1013.8
20260503051717 15 193 3.2 6.4 0.00 0.00 0.00 64 1015.3
20260503051521 15 193 1.6 6.4 0.00 0.00 0.00 64 1013.8
20260503051216 15 193 3.2 6.4 0.00 0.00 0.00 65 1015.4
20260503050716 15 182 3.2 6.4 0.00 0.00 0.00 65 1015.5
20260503050026 15 182 3.2 4.8 0.00 0.00 0.00 65 1013.8
20260503045718 15 182 3.2 4.8 0.00 0.00 0.00 65 1015.4
20260503044717 15 182 3.2 6.4 0.00 0.00 0.00 66 1015.2
20260503044528 15 182 3.2 6.4 0.00 0.00 0.00 65 1013.7
20260503044218 15 182 3.2 6.4 0.00 0.00 0.00 65 1015.3
20260503043720 15 182 3.2 6.4 0.00 0.00 0.00 65 1015.3
20260503043221 15 184 1.6 4.8 0.00 0.00 0.00 65 1015.3
20260503043022 15 184 0.0 3.2 0.00 0.00 0.00 64 1013.6
20260503042720 15 184 1.6 4.8 0.00 0.00 0.00 64 1015.3
20260503041522 15 184 1.6 4.8 0.00 0.00 0.00 63 1013.5
20260503041207 15 184 3.2 4.8 0.00 0.00 0.00 62 1015.1
20260503040707 15 184 1.6 6.4 0.00 0.00 0.00 62 1015.1
20260503040209 15 184 1.6 6.4 0.00 0.00 0.00 62 1015.1
20260503040027 15 184 0.0 1.6 0.00 0.00 0.00 62 1013.4
20260503035708 16 184 0.0 3.2 0.00 0.00 0.00 63 1015.1
20260503034705 16 184 1.6 4.8 0.00 0.00 0.00 61 1015.0
20260503034514 16 184 0.0 3.2 0.00 0.00 0.00 61 1013.3
20260503034205 16 184 1.6 3.2 0.00 0.00 0.00 61 1014.9
20260503033706 16 184 3.2 3.2 0.00 0.00 0.00 61 1014.9
20260503033206 16 184 3.2 3.2 0.00 0.00 0.00 61 1014.8
20260503033013 16 184 1.6 3.2 0.00 0.00 0.00 60 1013.1
20260503032705 16 184 3.2 4.8 0.00 0.00 0.00 61 1014.9
20260503032204 17 184 3.2 4.8 0.00 0.00 0.00 62 1014.8
20260503031704 17 184 3.2 4.8 0.00 0.00 0.00 61 1014.9
20260503031508 17 184 1.6 4.8 0.00 0.00 0.00 61 1013.1
20260503031203 17 184 3.2 4.8 0.00 0.00 0.00 60 1015.1
20260503030704 17 184 3.2 4.8 0.00 0.00 0.00 61 1015.1
20260503030204 18 184 3.2 4.8 0.00 0.00 0.00 61 1015.1
20260503030004 18 184 1.6 4.8 0.00 0.00 0.00 60 1013.1
20260503025703 18 184 3.2 6.4 0.00 0.00 0.00 61 1015.1
20260503025204 18 183 1.6 6.4 0.00 0.00 0.00 59 1015.0
20260503024504 19 251 0.0 0.0 0.00 0.00 0.00 59 1013.1
20260503024152 20 251 0.0 0.0 0.00 0.00 0.00 60 1015.0
20260503023652 20 251 0.0 0.0 0.00 0.00 0.00 58 1015.0
20260503023152 20 251 0.0 0.0 0.00 0.00 0.00 58 1015.1
20260503023013 20 251 0.0 0.0 0.00 0.00 0.00 56 1013.1
20260503022653 20 251 0.0 0.0 0.00 0.00 0.00 56 1015.1
20260503022152 21 251 0.0 0.0 0.00 0.00 0.00 55 1015.2
20260503021652 21 251 0.0 0.0 0.00 0.00 0.00 54 1015.2
20260503021517 21 251 0.0 1.6 0.00 0.00 0.00 52 1013.1
20260503021153 21 251 0.0 1.6 0.00 0.00 0.00 53 1015.2
20260503020651 21 251 0.0 3.2 0.00 0.00 0.00 49 1014.8
20260503020012 21 251 0.0 3.2 0.00 0.00 0.00 47 1013.3
20260503015648 22 274 0.0 4.8 0.00 0.00 0.00 49 1014.8
20260503014648 22 321 1.6 4.8 0.00 0.00 0.00 47 1014.9
20260503014511 22 321 0.0 4.8 0.00 0.00 0.00 46 1013.3
20260503014148 22 321 1.6 4.8 0.00 0.00 0.00 44 1014.9
20260503013146 22 345 3.2 8.0 0.00 0.00 0.00 45 1015.1
20260503013008 21 347 1.6 8.0 0.00 0.00 0.00 45 1013.4
20260503012147 21 5 4.8 9.7 0.00 0.00 0.00 48 1015.1
20260503011507 21 21 4.8 8.0 0.00 0.00 0.00 48 1013.5
20260503011145 21 9 1.6 6.4 0.00 0.00 0.00 50 1015.1
20260503010648 21 5 1.6 6.4 0.00 0.00 0.00 49 1015.1
20260503010146 21 11 1.6 6.4 0.00 0.00 0.00 48 1015.2
20260503010030 21 23 0.0 4.8 0.00 0.00 0.00 48 1013.5
20260503005642 21 23 3.2 6.4 0.00 0.00 0.00 50 1015.7
20260503005142 21 26 1.6 6.4 0.00 0.00 0.00 49 1015.2
20260503004517 21 46 0.0 4.8 0.00 0.00 0.00 48 1013.5
20260503004142 21 70 1.6 4.8 0.00 0.00 0.00 49 1015.3
20260503003641 21 81 1.6 6.4 0.00 0.00 0.00 49 1015.8
20260503003142 21 87 1.6 6.4 0.00 0.00 0.00 48 1015.7
20260503003016 21 352 1.6 4.8 0.00 0.00 0.00 48 1013.5